CZ-3B DEB, 40160

Orbit data source: Space-Track

CZ-3B DEB, 40160 is space debris in HEO originally from a launch on Sat, 04 Sep 2010 UTC launched from the Xichang Space Center, China (XSC). Debris objects in space refer to the collection of defunct objects orbiting the Earth. Examples of debris include non-operational satellites, rocket bodies, and fragments generated from explosions, collisions, or faulty payload assembly.

Loading next visibility...
Identifier
40160, 2010-042M
Orbit
HEO
Country
Flag of CNCN / PRC
Related business
Manufacturer
CALT
Mission
Spacecraft
Bus & Motor
Unknown
Mass
Unknown
Launch date (UTC)
2010-09-04 (16 years ago)
Launch vehicle
Unknown
Launch site
Xichang Space Center, China (XSC)
Object type
Payload
Rocket body
Debris
Shape & HBR
Unknown shape, 0.3 m
Radar Cross Section
Medium (>0.1 m² and <1 m²)

Expand to show TLE details & history
Last TLE update: 6 days ago

TLE from 6 days ago
0 CZ-3B DEB
1 40160U 10042M   26114.37549200 -.00000146  00000-0  00000-0 0  9994
2 40160  27.0966 269.7433 7241170 328.4440 288.2087  1.89881108 86197
Epoch: 2026-04-24T09:00Z
TLE epoch observation values (Epoch: 2026-04-24T09:00:42.508Z)
Latitude
0.24954°
Longitude
101.61025°
Altitude
28,146.871 km
Speed
2.936 km/s
True Right ascension
05h 56m 47s
True Declination
0° 14' 57"
Sunlit
Object was in daylight at epoch
Visualization orbit readout
Latitude
Unknown
Longitude
Unknown
Altitude
Unknown
Speed
Unknown
Apparent Right ascension
Unknown
Apparent Declination
Unknown
Sunlit
N/A
Visualization observer readout
Local Sidereal Time
23:49:31
Azimuth
Unknown
Elevation
Unknown
Doppler factor
Unknown
Orbital elements
Apogee altitude
41,122.627 km
Perigee altitude
1,222.654 km
Semi-major axis
27,550.778 km
Eccentricity
0.72412
Inclination
27.0966°
RAAN
269.7433°
Arg. of periapsis
328.444°
True anomaly
210.95193°
Mean anomaly
288.2087°
Eccentric anomaly
249.37822°
Mean motion
0.47462 °/min
Orbital period
758.51 mins
BSTAR
0
Loading maneuver chart data...
Computing Atmospheric mass density...
Loading historical data...
Loading historical data...
Loading historical data...
Loading historical data...
Loading historical data...
Loading historical data...
Loading historical data...

Documentation

Showing up to 5 results
|